Location: Rotheul
(50.2849°N, 11.2349°E)
Time: 15:58:54
(UTC+02:00)

ISS - Pass Details

Date: 17 July 2018
Orbit: 402 x 408 km, 51.6° (Epoch: 23 July)

Event Time Altitude Azimuth Distance (km) Brightness Sun altitude
Exits shadow 00:08:23 11° 89° (E) 1,404 -1.3 -16.7°
Drops below altitude 10° 00:08:34 10° 87° (E) 1,469 -1.1 -16.7°
Sets 00:10:50 0° 74° (ENE) 2,334 0.0 -16.8°
